Satellite: PO-28
Catalog number: 22829
Epoch time:      08127.47452566
Element set:     937
Inclination:      098.3612 deg
RA of node:       091.1082 deg
Eccentricity:    0.0010057
Arg of perigee:   359.0921 deg
Mean anomaly:     001.0248 deg
Mean motion:   14.30188341 rev/day
Decay rate:        5.5e-07 rev/day^2
Epoch rev:           76216
Checksum:              292

Satellite: GO-32
Catalog number: 25397
Epoch time:      08127.76997882
Element set:     592
Inclination:      098.3666 deg
RA of node:       164.9710 deg
Eccentricity:    0.0001596
Arg of perigee:   038.4904 deg
Mean anomaly:     321.6386 deg
Mean motion:   14.23143431 rev/day
Decay rate:       1.31e-06 rev/day^2
Epoch rev:           51032
Checksum:              317

Satellite: MO-46
Catalog number: 26548
Epoch time:      08127.63489092
Element set:      90
Inclination:      064.5576 deg
RA of node:       258.8481 deg
Eccentricity:    0.0025348
Arg of perigee:   330.0304 deg
Mean anomaly:     029.9330 deg
Mean motion:   14.83256815 rev/day
Decay rate:        1.7e-07 rev/day^2
Epoch rev:           41165
Checksum:              312

Satellite: NO-44
Catalog number: 26931
Epoch time:      08127.79690555
Element set:    0872
Inclination:      067.0552 deg
RA of node:       031.2830 deg
Eccentricity:    0.0006124
Arg of perigee:   278.6872 deg
Mean anomaly:     081.3514 deg
Mean motion:   14.29522163 rev/day
Decay rate:        4.7e-07 rev/day^2
Epoch rev:           34449
Checksum:              308

Satellite: SO-50
Catalog number: 27607
Epoch time:      08128.49748774
Element set:     596
Inclination:      064.5587 deg
RA of node:       177.2134 deg
Eccentricity:    0.0084411
Arg of perigee:   287.2392 deg
Mean anomaly:     071.9472 deg
Mean motion:   14.71352233 rev/day
Decay rate:        4.8e-07 rev/day^2
Epoch rev:           28898
Checksum:              346

Satellite: CO-55
Catalog number: 27844
Epoch time:      08127.74012880
Element set:    0299
Inclination:      098.7161 deg
RA of node:       136.5828 deg
Eccentricity:    0.0008946
Arg of perigee:   233.4762 deg
Mean anomaly:     126.5573 deg
Mean motion:   14.20577270 rev/day
Decay rate:        5.3e-07 rev/day^2
Epoch rev:           25155
Checksum:              323

Satellite: CO-57
Catalog number: 27848
Epoch time:      08128.01441475
Element set:     250
Inclination:      098.7163 deg
RA of node:       135.9566 deg
Eccentricity:    0.0008928
Arg of perigee:   238.4055 deg
Mean anomaly:     121.6247 deg
Mean motion:   14.20386239 rev/day
Decay rate:        3.2e-07 rev/day^2
Epoch rev:           25156
Checksum:              312

Satellite: AO-51
Catalog number: 28375
Epoch time:      08127.58348568
Element set:    0093
Inclination:      098.0746 deg
RA of node:       154.4884 deg
Eccentricity:    0.0083425
Arg of perigee:   279.7448 deg
Mean anomaly:     079.4332 deg
Mean motion:   14.40606030 rev/day
Decay rate:        1.5e-07 rev/day^2
Epoch rev:           20241
Checksum:              317

Satellite: CO-56
Catalog number: 28941
Epoch time:      08128.36747961
Element set:      32
Inclination:      098.1059 deg
RA of node:       233.5557 deg
Eccentricity:    0.0173428
Arg of perigee:   189.0165 deg
Mean anomaly:     170.8006 deg
Mean motion:   15.54786064 rev/day
Decay rate:     3.7670e-04 rev/day^2
Epoch rev:           12369
Checksum:              339

Satellite: CP4
Catalog number: 31122
Epoch time:      08127.69803382
Element set:     330
Inclination:      098.0458 deg
RA of node:       194.8269 deg
Eccentricity:    0.0087045
Arg of perigee:   097.8210 deg
Mean anomaly:     263.2858 deg
Mean motion:   14.55121404 rev/day
Decay rate:       5.53e-06 rev/day^2
Epoch rev:            5604
Checksum:              298

Satellite: CP3
Catalog number: 31128
Epoch time:      08127.71148785
Element set:    0325
Inclination:      098.0426 deg
RA of node:       192.8995 deg
Eccentricity:    0.0104338
Arg of perigee:   103.1063 deg
Mean anomaly:     258.1820 deg
Mean motion:   14.51942273 rev/day
Decay rate:       -4.6e-07 rev/day^2
Epoch rev:           05591
Checksum:              297

Satellite: LIBERT
Catalog number: 31129
Epoch time:      08128.10167113
Element set:     945
Inclination:      098.0400 deg
RA of node:       193.3090 deg
Eccentricity:    0.0103508
Arg of perigee:   101.6729 deg
Mean anomaly:     259.6098 deg
Mean motion:   14.52032754 rev/day
Decay rate:       3.40e-06 rev/day^2
Epoch rev:            5595
Checksum:              274

/EX
SB KEPS @ AMSAT  $ORB08128.W
Orbital Elements  08128.WEATHER

HR AMSAT ORBITAL ELEMENTS FOR WEATHER SATELLITES
FROM WA5QGD FORT WORTH,TX May 7, 2008
Send Subscribe/unsubscribe to KEPS at 
http://www.amsat.org/mailman/listinfo/keps
BID: ORB08128.W
TO ALL RADIO AMATEURS BT

Satellite: NOAA-10
Catalog number: 16969
Epoch time:      08128.14659574
Element set:     107
Inclination:      098.7231 deg
RA of node:       150.1945 deg
Eccentricity:    0.0011759
Arg of perigee:   304.7168 deg
Mean anomaly:     055.2891 deg
Mean motion:   14.27359101 rev/day
Decay rate:       1.10e-06 rev/day^2
Epoch rev:           12558
Checksum:              303

